AAL2556 KCLT-KPNS

Flight info

Callsign AAL2556
Flight time N/A
Altitude 34000
Route ESTRR5 IPTAY CHOPZ DARED CEW PENSI
Aircraft A319/M-SDE3FGHIRWY/LB1

Departure

Time 2026-05-04 21:47
Airport Charlotte Douglas International Airport (KCLT)

Arrival

Time N/A
Airport Pensacola International Airport (KPNS)
Time Latitude Longitude Altitude Speed Heading
2026-05-04 21:33 35.21878 -80.94477 732 ft 2 kts 286°
2026-05-04 21:33 35.21871 -80.94451 732 ft 3 kts 282°
2026-05-04 21:34 35.21871 -80.94426 732 ft 2 kts 250°
2026-05-04 21:34 35.21882 -80.94404 732 ft 3 kts 212°
2026-05-04 21:34 35.21903 -80.94393 732 ft 3 kts 191°
2026-05-04 21:34 35.21923 -80.94389 732 ft 1 kts 190°
2026-05-04 21:35 35.21906 -80.94393 732 ft 3 kts 191°
2026-05-04 21:35 35.21882 -80.94398 731 ft 3 kts 188°
2026-05-04 21:35 35.21863 -80.94401 732 ft 3 kts 189°
2026-05-04 21:35 35.21840 -80.94405 732 ft 3 kts 186°
2026-05-04 21:36 35.21816 -80.94406 732 ft 3 kts 180°
2026-05-04 21:36 35.21796 -80.94405 732 ft 0 kts 176°
2026-05-04 21:38 35.21790 -80.94405 732 ft 2 kts 176°
2026-05-04 21:38 35.21766 -80.94402 731 ft 5 kts 175°
2026-05-04 21:39 35.21720 -80.94398 732 ft 8 kts 175°
2026-05-04 21:39 35.21660 -80.94415 731 ft 10 kts 220°
2026-05-04 21:39 35.21629 -80.94505 732 ft 13 kts 262°
2026-05-04 21:39 35.21622 -80.94625 732 ft 15 kts 266°
2026-05-04 21:40 35.21615 -80.94757 732 ft 16 kts 266°
2026-05-04 21:40 35.21607 -80.94887 733 ft 14 kts 275°
2026-05-04 21:40 35.21683 -80.94940 733 ft 14 kts 355°
2026-05-04 21:40 35.21777 -80.94949 733 ft 10 kts 355°
2026-05-04 21:41 35.21842 -80.94960 733 ft 9 kts 338°
2026-05-04 21:41 35.21874 -80.95025 733 ft 9 kts 301°
2026-05-04 21:41 35.21932 -80.95048 734 ft 10 kts 356°
2026-05-04 21:41 35.22007 -80.95054 734 ft 12 kts 356°
2026-05-04 21:42 35.22097 -80.95062 733 ft 14 kts 355°
2026-05-04 21:42 35.22203 -80.95072 733 ft 16 kts 356°
2026-05-04 21:42 35.22278 -80.95078 734 ft 17 kts 356°
2026-05-04 21:42 35.22396 -80.95088 734 ft 18 kts 356°
2026-05-04 21:43 35.22522 -80.95099 733 ft 18 kts 356°
2026-05-04 21:43 35.22631 -80.95108 734 ft 13 kts 356°
2026-05-04 21:43 35.22719 -80.95125 734 ft 12 kts 330°
2026-05-04 21:43 35.22732 -80.95190 735 ft 1 kts 266°
2026-05-04 21:44 35.22732 -80.95191 735 ft 0 kts 266°
2026-05-04 21:44 35.22732 -80.95192 735 ft 1 kts 266°
2026-05-04 21:44 35.22731 -80.95219 736 ft 11 kts 266°
2026-05-04 21:45 35.22722 -80.95312 739 ft 8 kts 241°
2026-05-04 21:45 35.22699 -80.95319 741 ft 1 kts 171°
2026-05-04 21:45 35.22697 -80.95319 741 ft 0 kts 172°
2026-05-04 21:46 35.22681 -80.95316 741 ft 10 kts 172°
2026-05-04 21:46 35.22329 -80.95284 741 ft 90 kts 176°
2026-05-04 21:46 35.21480 -80.95211 740 ft 153 kts 176°
2026-05-04 21:46 35.20392 -80.95110 1331 ft 156 kts 178°
2026-05-04 21:47 35.19318 -80.95001 2091 ft 154 kts 177°
2026-05-04 21:47 35.18241 -80.94882 2738 ft 161 kts 178°
2026-05-04 21:47 35.17099 -80.95223 3060 ft 185 kts 214°
2026-05-04 21:47 35.16146 -80.96429 3465 ft 211 kts 230°
2026-05-04 21:48 35.15380 -80.98076 3923 ft 239 kts 250°
2026-05-04 21:48 35.14861 -81.00101 4624 ft 257 kts 251°
2026-05-04 21:48 35.14335 -81.02211 5643 ft 263 kts 252°
2026-05-04 21:48 35.13805 -81.04364 6700 ft 267 kts 252°
2026-05-04 21:49 35.13267 -81.06560 7608 ft 272 kts 252°
2026-05-04 21:49 35.12729 -81.08759 8011 ft 275 kts 253°
2026-05-04 21:49 35.12179 -81.10998 8056 ft 275 kts 252°
2026-05-04 21:49 35.11621 -81.13249 8461 ft 278 kts 252°
2026-05-04 21:50 35.11060 -81.15516 9502 ft 280 kts 253°
2026-05-04 21:50 35.10491 -81.17806 10521 ft 282 kts 253°
2026-05-04 21:50 35.09903 -81.20167 11098 ft 302 kts 255°
2026-05-04 21:50 35.09279 -81.22688 11746 ft 315 kts 255°
2026-05-04 21:51 35.08639 -81.25280 12552 ft 323 kts 256°
2026-05-04 21:51 35.07983 -81.27923 13401 ft 327 kts 255°
2026-05-04 21:51 35.07319 -81.30584 14246 ft 329 kts 255°
2026-05-04 21:51 35.06647 -81.33272 15057 ft 333 kts 255°
2026-05-04 21:52 35.05968 -81.35988 15823 ft 337 kts 255°
2026-05-04 21:52 35.05280 -81.38736 16599 ft 340 kts 255°
2026-05-04 21:52 35.04584 -81.41505 17362 ft 343 kts 255°
2026-05-04 21:52 35.03881 -81.44301 18100 ft 346 kts 255°
2026-05-04 21:53 35.03172 -81.47120 18806 ft 349 kts 255°
2026-05-04 21:53 35.02458 -81.49969 19514 ft 353 kts 255°
2026-05-04 21:53 35.01735 -81.52837 20201 ft 355 kts 255°
2026-05-04 21:53 35.01000 -81.55733 20861 ft 359 kts 255°
2026-05-04 21:54 35.00259 -81.58654 21533 ft 362 kts 255°
2026-05-04 21:54 34.99451 -81.61569 22175 ft 365 kts 252°
2026-05-04 21:54 34.98542 -81.64473 22808 ft 368 kts 251°
2026-05-04 21:54 34.97575 -81.67373 23415 ft 371 kts 250°
2026-05-04 21:55 34.96581 -81.70291 24004 ft 373 kts 250°
2026-05-04 21:55 34.95581 -81.73225 24560 ft 376 kts 250°
2026-05-04 21:55 34.94583 -81.76181 25098 ft 378 kts 250°
2026-05-04 21:55 34.93591 -81.79156 25619 ft 381 kts 250°
2026-05-04 21:56 34.92374 -81.82050 26118 ft 387 kts 241°
2026-05-04 21:56 34.90866 -81.84780 26613 ft 390 kts 239°
2026-05-04 21:56 34.89343 -81.87516 27100 ft 392 kts 240°
2026-05-04 21:56 34.87811 -81.90273 27577 ft 394 kts 240°
2026-05-04 21:57 34.86272 -81.93039 28050 ft 395 kts 240°
2026-05-04 21:57 34.84724 -81.95818 28502 ft 398 kts 240°
2026-05-04 21:57 34.83167 -81.98610 28942 ft 400 kts 240°
2026-05-04 21:57 34.81596 -82.01416 29377 ft 402 kts 239°
2026-05-04 21:58 34.80016 -82.04232 29796 ft 404 kts 240°
2026-05-04 21:58 34.78433 -82.07057 30198 ft 406 kts 240°
2026-05-04 21:58 34.76842 -82.09903 30573 ft 408 kts 240°
2026-05-04 21:58 34.75242 -82.12761 30930 ft 410 kts 239°
2026-05-04 21:59 34.73630 -82.15631 31283 ft 412 kts 239°
2026-05-04 21:59 34.72009 -82.18515 31630 ft 415 kts 239°
2026-05-04 21:59 34.70378 -82.21414 31972 ft 416 kts 239°
2026-05-04 21:59 34.68741 -82.24324 32293 ft 418 kts 239°
2026-05-04 22:00 34.67105 -82.27234 32718 ft 417 kts 239°
2026-05-04 22:00 34.65473 -82.30138 33189 ft 415 kts 239°
2026-05-04 22:00 34.63843 -82.33030 33626 ft 414 kts 239°
2026-05-04 22:00 34.62216 -82.35914 33961 ft 414 kts 239°
2026-05-04 22:01 34.60593 -82.38786 34032 ft 408 kts 239°
2026-05-04 22:01 34.57419 -82.44383 34037 ft 399 kts 239°
2026-05-04 22:02 34.54285 -82.49917 34046 ft 398 kts 239°
2026-05-04 22:02 34.51150 -82.55451 34036 ft 398 kts 239°
2026-05-04 22:03 34.48041 -82.60935 34034 ft 398 kts 239°
2026-05-04 22:03 34.44903 -82.66446 34032 ft 397 kts 239°
2026-05-04 22:04 34.41738 -82.72000 34035 ft 398 kts 239°
2026-05-04 22:04 34.38618 -82.77477 34039 ft 397 kts 239°
2026-05-04 22:05 34.35475 -82.82974 34025 ft 397 kts 239°
2026-05-04 22:05 34.32330 -82.88472 34017 ft 397 kts 239°
2026-05-04 22:06 34.29179 -82.93960 34023 ft 397 kts 239°
2026-05-04 22:06 34.26024 -82.99440 34029 ft 397 kts 239°
2026-05-04 22:07 34.22872 -83.04913 34027 ft 397 kts 239°
2026-05-04 22:07 34.19711 -83.10382 34028 ft 397 kts 239°
2026-05-04 22:08 34.16543 -83.15854 34023 ft 397 kts 238°
2026-05-04 22:08 34.13376 -83.21323 34026 ft 398 kts 238°
2026-05-04 22:09 34.10207 -83.26798 34024 ft 398 kts 238°
2026-05-04 22:09 34.07033 -83.32266 34023 ft 398 kts 238°
2026-05-04 22:10 34.03856 -83.37728 34024 ft 398 kts 238°
2026-05-04 22:10 34.00676 -83.43185 34027 ft 398 kts 238°
2026-05-04 22:11 33.97489 -83.48649 34027 ft 398 kts 238°
2026-05-04 22:11 33.94307 -83.54102 34029 ft 398 kts 238°
2026-05-04 22:12 33.91116 -83.59557 34030 ft 398 kts 238°
2026-05-04 22:12 33.87922 -83.65006 34039 ft 398 kts 238°
2026-05-04 22:13 33.84176 -83.69961 34037 ft 407 kts 222°
2026-05-04 22:13 33.79434 -83.73755 34035 ft 410 kts 217°
2026-05-04 22:14 33.74646 -83.77502 34042 ft 410 kts 218°
2026-05-04 22:14 33.69870 -83.81251 34032 ft 410 kts 218°
2026-05-04 22:15 33.65092 -83.84993 34033 ft 410 kts 218°
2026-05-04 22:15 33.60316 -83.88730 34033 ft 410 kts 218°
2026-05-04 22:16 33.55537 -83.92464 34024 ft 410 kts 218°
2026-05-04 22:16 33.50753 -83.96192 34029 ft 410 kts 218°
2026-05-04 22:17 33.45968 -83.99906 34035 ft 410 kts 218°
2026-05-04 22:17 33.41181 -84.03630 34035 ft 410 kts 218°
2026-05-04 22:18 33.36394 -84.07356 34046 ft 410 kts 218°
2026-05-04 22:18 33.31607 -84.11076 34051 ft 410 kts 218°
2026-05-04 22:19 33.26845 -84.14769 34051 ft 410 kts 218°
2026-05-04 22:19 33.22056 -84.18471 34051 ft 410 kts 218°
2026-05-04 22:20 33.17273 -84.22168 34052 ft 410 kts 218°
2026-05-04 22:20 33.12484 -84.25858 34052 ft 409 kts 219°
2026-05-04 22:21 33.07713 -84.29543 34045 ft 408 kts 219°
2026-05-04 22:21 33.02936 -84.33215 34050 ft 408 kts 219°
2026-05-04 22:22 32.98170 -84.36878 34055 ft 407 kts 219°
2026-05-04 22:22 32.93404 -84.40541 34050 ft 407 kts 219°
2026-05-04 22:23 32.88644 -84.44187 34046 ft 407 kts 219°
2026-05-04 22:23 32.83877 -84.47840 34048 ft 407 kts 219°
2026-05-04 22:24 32.79117 -84.51478 34050 ft 407 kts 219°
2026-05-04 22:24 32.74357 -84.55113 34053 ft 406 kts 219°
2026-05-04 22:25 32.69597 -84.58741 34052 ft 407 kts 219°
2026-05-04 22:25 32.65639 -84.61748 34052 ft 406 kts 219°
2026-05-04 22:26 32.60881 -84.65372 34054 ft 407 kts 219°
2026-05-04 22:26 32.56114 -84.69009 34057 ft 407 kts 219°
2026-05-04 22:27 32.51322 -84.72646 34070 ft 409 kts 219°
2026-05-04 22:27 32.48924 -84.74461 33948 ft 408 kts 219°
2026-05-04 22:27 32.46530 -84.76269 33689 ft 407 kts 219°
2026-05-04 22:27 32.44148 -84.78072 33436 ft 407 kts 219°
2026-05-04 22:28 32.41758 -84.79880 33189 ft 408 kts 219°
2026-05-04 22:28 32.39368 -84.81691 32939 ft 409 kts 219°
2026-05-04 22:28 32.36969 -84.83507 32686 ft 410 kts 219°
2026-05-04 22:28 32.34565 -84.85323 32438 ft 411 kts 219°
2026-05-04 22:29 32.32150 -84.87143 32185 ft 412 kts 219°
2026-05-04 22:29 32.29758 -84.88944 31941 ft 412 kts 219°
2026-05-04 22:29 32.27332 -84.90771 31690 ft 413 kts 219°
2026-05-04 22:29 32.24907 -84.92599 31444 ft 415 kts 219°
2026-05-04 22:30 32.22473 -84.94436 31191 ft 416 kts 219°
2026-05-04 22:30 32.20036 -84.96273 30940 ft 416 kts 219°
2026-05-04 22:30 32.17600 -84.98109 30691 ft 415 kts 219°
2026-05-04 22:30 32.15163 -84.99941 30440 ft 414 kts 219°
2026-05-04 22:31 32.12735 -85.01764 30189 ft 412 kts 219°
2026-05-04 22:31 32.10320 -85.03574 29940 ft 410 kts 219°
2026-05-04 22:31 32.07915 -85.05375 29687 ft 409 kts 218°
2026-05-04 22:31 32.05513 -85.07171 29437 ft 408 kts 218°
2026-05-04 22:32 32.03118 -85.08958 29183 ft 407 kts 218°
2026-05-04 22:32 32.00730 -85.10745 28935 ft 405 kts 218°
2026-05-04 22:32 31.98355 -85.12523 28683 ft 404 kts 219°
2026-05-04 22:32 31.95988 -85.14296 28434 ft 402 kts 219°
2026-05-04 22:33 31.93634 -85.16057 28183 ft 400 kts 219°
2026-05-04 22:33 31.91285 -85.17812 27933 ft 399 kts 218°
2026-05-04 22:33 31.88943 -85.19562 27681 ft 398 kts 218°
2026-05-04 22:33 31.86594 -85.21319 27432 ft 407 kts 218°
2026-05-04 22:34 31.84193 -85.23120 27183 ft 420 kts 218°
2026-05-04 22:34 31.81715 -85.24975 26933 ft 423 kts 218°
2026-05-04 22:34 31.79226 -85.26826 26675 ft 423 kts 218°
2026-05-04 22:34 31.76745 -85.28667 26421 ft 422 kts 218°
2026-05-04 22:35 31.74266 -85.30502 26184 ft 420 kts 217°
2026-05-04 22:35 31.71796 -85.32328 25926 ft 419 kts 217°
2026-05-04 22:35 31.69337 -85.34149 25684 ft 417 kts 217°
2026-05-04 22:35 31.66892 -85.35966 25457 ft 416 kts 217°
2026-05-04 22:36 31.64448 -85.37779 25205 ft 414 kts 217°
2026-05-04 22:36 31.62013 -85.39583 24955 ft 413 kts 217°
2026-05-04 22:36 31.59588 -85.41377 24704 ft 411 kts 217°
2026-05-04 22:36 31.57173 -85.43162 24458 ft 410 kts 217°
2026-05-04 22:37 31.54765 -85.44940 24205 ft 409 kts 217°
2026-05-04 22:37 31.52366 -85.46714 24028 ft 407 kts 217°
2026-05-04 22:37 31.49978 -85.48482 24054 ft 407 kts 217°
2026-05-04 22:37 31.47583 -85.50255 24052 ft 407 kts 217°
2026-05-04 22:38 31.45185 -85.52028 24055 ft 413 kts 217°
2026-05-04 22:38 31.42716 -85.53859 24054 ft 427 kts 217°
2026-05-04 22:38 31.40183 -85.55735 24053 ft 433 kts 217°
2026-05-04 22:38 31.37630 -85.57615 24046 ft 434 kts 216°
2026-05-04 22:39 31.35068 -85.59496 24037 ft 435 kts 217°
2026-05-04 22:39 31.32510 -85.61375 24033 ft 434 kts 217°
2026-05-04 22:39 31.29948 -85.63251 24024 ft 434 kts 217°
2026-05-04 22:39 31.27390 -85.65124 24026 ft 434 kts 217°
2026-05-04 22:40 31.24829 -85.67002 24027 ft 435 kts 217°
2026-05-04 22:40 31.22264 -85.68884 24026 ft 435 kts 217°
2026-05-04 22:40 31.19705 -85.70762 24025 ft 435 kts 217°
2026-05-04 22:40 31.17140 -85.72645 24022 ft 435 kts 217°
2026-05-04 22:41 31.14578 -85.74522 24021 ft 435 kts 217°
2026-05-04 22:41 31.12017 -85.76399 24022 ft 435 kts 217°
2026-05-04 22:41 31.09455 -85.78276 24024 ft 435 kts 217°
2026-05-04 22:41 31.06892 -85.80147 24027 ft 435 kts 217°
2026-05-04 22:42 31.04325 -85.82030 24029 ft 435 kts 218°
2026-05-04 22:42 31.02027 -85.84257 24026 ft 427 kts 231°
2026-05-04 22:42 31.00269 -85.86998 24030 ft 420 kts 243°
2026-05-04 22:42 30.99119 -85.90092 24031 ft 415 kts 255°
2026-05-04 22:43 30.98424 -85.93353 24036 ft 414 kts 258°
2026-05-04 22:43 30.97750 -85.96614 24036 ft 414 kts 258°
2026-05-04 22:43 30.97080 -85.99831 24038 ft 414 kts 258°
2026-05-04 22:43 30.96390 -86.03125 24038 ft 413 kts 258°
2026-05-04 22:44 30.95705 -86.06381 24041 ft 413 kts 258°
2026-05-04 22:44 30.95029 -86.09586 24042 ft 413 kts 258°
2026-05-04 22:44 30.94344 -86.12833 24057 ft 413 kts 258°
2026-05-04 22:44 30.93662 -86.16077 24034 ft 413 kts 258°
2026-05-04 22:45 30.92979 -86.19326 23685 ft 412 kts 258°
2026-05-04 22:45 30.91610 -86.25779 23182 ft 409 kts 258°
2026-05-04 22:45 30.90927 -86.28990 22932 ft 408 kts 258°
2026-05-04 22:46 30.90246 -86.32200 22682 ft 408 kts 258°
2026-05-04 22:46 30.89568 -86.35401 22432 ft 406 kts 258°
2026-05-04 22:46 30.88893 -86.38591 22182 ft 406 kts 258°
2026-05-04 22:46 30.88217 -86.41778 21930 ft 405 kts 258°
2026-05-04 22:47 30.87539 -86.44962 21680 ft 404 kts 257°
2026-05-04 22:47 30.86863 -86.48126 21428 ft 403 kts 257°
2026-05-04 22:47 30.86189 -86.51288 21188 ft 401 kts 257°
2026-05-04 22:47 30.85517 -86.54436 20967 ft 401 kts 257°
2026-05-04 22:48 30.84845 -86.57584 20644 ft 400 kts 257°
2026-05-04 22:48 30.84173 -86.60717 20104 ft 397 kts 257°
2026-05-04 22:48 30.83503 -86.63827 19561 ft 396 kts 257°
2026-05-04 22:48 30.82838 -86.66929 19007 ft 394 kts 258°
2026-05-04 22:49 30.82499 -86.70066 18384 ft 390 kts 266°
2026-05-04 22:49 30.82329 -86.73211 17711 ft 388 kts 266°
2026-05-04 22:49 30.82167 -86.76335 17103 ft 386 kts 266°
2026-05-04 22:49 30.82007 -86.79447 16513 ft 384 kts 266°
2026-05-04 22:50 30.81844 -86.82543 15919 ft 383 kts 266°
2026-05-04 22:50 30.81676 -86.85632 15345 ft 381 kts 266°
2026-05-04 22:50 30.81506 -86.88704 14779 ft 379 kts 266°
2026-05-04 22:50 30.81336 -86.91761 14200 ft 378 kts 266°
2026-05-04 22:51 30.81166 -86.94796 13607 ft 375 kts 266°
2026-05-04 22:51 30.80995 -86.97805 12948 ft 371 kts 266°
2026-05-04 22:51 30.80825 -87.00783 12223 ft 368 kts 266°